Regional Weather Roundup
Issued by NWS Newport/Morehead, NC

Current Version | Previous Version | Graphics & Text | Print | Product List | Glossary Off
Versions: 1 2 3 4 5 6 7 8 9 10 11 12 13 14 15 16 17 18 19 20 21 22 23 24 25 26 27 28 29 30 31 32 33 34 35 36 37 38 39 40 41 42 43 44 45 46 47 48 49 50

000
ASUS42 KMHX 210322
RWRMHX
WEATHER ROUNDUP FOR EASTERN NORTH CAROLINA
NATIONAL WEATHER SERVICE NEWPORT/MOREHEAD CITY NC
1100 PM EDT WED AUG 20 2014

NOTE: "FAIR" INDICATES FEW OR NO CLOUDS BELOW 12,000 FEET
WITH NO SIGNIFICANT WEATHER AND/OR OBSTRUCTIONS TO VISIBILITY

NCZ015>017-031-032-045>047-102-103-210400-
NORTH COAST

CITY           SKY/WX    TMP DP  RH WIND       PRES   REMARKS
EDENTON        PTCLDY    76  73  89 SE3       30.04R
ELIZABETH CITY MOCLDY    73  72  94 CALM      30.04R FOG
KITTY HAWK     CLEAR     75  71  87 CALM      30.03R
MANTEO         CLEAR     73  72  94 CALM      30.04R

$$

NCZ045>047-081-094-103-104-210400-
CENTRAL COAST

CITY           SKY/WX    TMP DP  RH WIND       PRES   REMARKS
FRISCO         CLEAR     75  73  93 E5        30.02S
SWANQUARTER      N/A     75 N/A N/A CALM      30.00R

$$

NCZ095-097-098-100-101-210400-
SOUTHERN COAST

CITY           SKY/WX    TMP DP  RH WIND       PRES   REMARKS
BEAUFORT       CLEAR     80  76  87 SW5       30.03R
CEDAR ISLAND     N/A     79 N/A N/A S1        30.06S
JACKSONVILLE   CLEAR     77  75  93 CALM      30.04R
NEWPORT        NOT AVBL
PINEY ISLAND   NOT AVBL
WILMINGTON     PTCLDY    77  75  93 CALM      30.03R


$$

NCZ011>013-027>030-043-044-078>080-089-090>093-098-210400-
COASTAL PLAIN

CITY           SKY/WX    TMP DP  RH WIND       PRES   REMARKS
AHOSKIE        CLEAR     74  72  93 SE3       30.03F
CLINTON        CLEAR     75  75 100 CALM      30.03S
ELIZABETHTOWN  CLEAR     77  76  96 CALM      30.04R
GOLDSBORO      CLEAR     78  77  98 S3        30.02R
GREENVILLE     CLEAR     77  73  88 CALM      30.04S
HAVELOCK       CLEAR     77  75  93 SW3       30.04R
KENANSVILLE    CLEAR     74  72  95 CALM      30.05R
KINSTON        CLEAR     76  74  95 CALM      30.04S
NEW BERN       CLEAR     78  74  87 CALM      30.05R
RICHLANDS      PTCLDY    73  70  88 CALM      30.04S
ROANOKE RAPIDS NOT AVBL
ROCKY MOUNT    PTCLDY    74  72  93 CALM      30.02S FOG
WASHINGTON     CLEAR     76  74  93 CALM      30.03S
WHITEVILLE     CLEAR     75  73  94 CALM      30.03S

$$

AMZ130-135-150-152-154-156-158-170-250-252-270-ANZ085-086-088-633-658-670-210400-
MARINE OBSERVATIONS

STATION/POSITION TIME  TEMP    WIND        PRES    WAVE   SWELL
                       AIR SEA DIR/SP/G            HT/PER HT/PER
                 (UTC) (F)     (DEG/KT/KT) (MB)    (FT/S) (FT/S)
CHESAPEAKE LIGHT 0300   76     160/ 13/ 13 1016.7
BUOY 44014       0300   77 78  100/  8/ 10 1015.6    3/ 7   3/ 7
DUCK             0300   77 79  140/  4/  7 1016.4
2E DUCK          0300                        N/A     2/ 6
OREGON INLET     0300   76 82   CALM  /  2 1017.0
BUOY 44095       0300      80                N/A     3/ 8
20E OREGON INLET NOT AVBL
HATTERAS CG      0300   79 82  100/  2/  5 1017.3
DIAMOND BUOY     0300   78      CALM  /  2 1017.0    2/ 6   2/ 6
CAPE LOOKOUT     0300   80     250/  4/  5 1016.9
BEAUFORT LAB     0300   81 82  250/  2/  3 1016.6
30 SE NEW RIVER  0300   82 83  230/  8/ 10 1016.3    3/ 6   2/ 6
5 SE WRIGHTSVILL 0300   78 82  260/  6/  6   N/A
BUOY 41002       0218   81 81  250/ 10/ 12 1018.3    4/ 6   3/ 6
BUOY 41004       0300   84 84  230/ 10/ 12 1016.5    3/ 5   2/ 8

$$



USA.gov is the U.S. government's official web portal to all federal, state and local government web resources and services.